SCP
0 0 -0 -0 -0 -0 0 0 0 -0 0 0 0 0 0 0 0 0 0 0 0 0 -0 -0 -0 -0 -0 -0 -0 -0 -0 -0 -0 -0 -0 -0 -0 -0 -0 -0 -0 -0 -0 0 -0 -0 0 0 -0
0 -0 -0 -0 0 0 0 -0 0 0 0 0 0 0 0 -0 0 0 0 0 0 0 0 0 -0 -0 -0 -0 -0 -0 -0 -0 -0 -0 -0 -0 -0 -0 -0 -0 -0 -0 -0 0 0 0 -0 0 -0
-0 -0 -0 0 0 0 0 0 0 -0 -0 0 0 0 0 0 0 0 0 0 0 0 0 0 -0 -0 -0 -0 -0 -0 -0 -0 -0 -0 -0 -0 -0 -0 -0 -0 -0 -0 0 0 0 0 0 0 0
-0 -0 -0 0 0 0 0 0 -0 -0 -0 0 0 0 0 0 -0 -0 -0 0 0 0 0 -0 -0 -0 -0 -0 -0 -0 -0 -0 -0 -0 -0 -0 -0 -0 -0 -0 0 0 0 0 0 0 0 0 0
-0 0 0 0 0 0 0 0 0 0 0 0 0 0 0 0 -0 0 0 0 0 0 0 0 -0 -0 -0 -0 -0 -0 -0 -0 -0 -0 -0 -0 0 -0 0 0 0 0 0 0 0 0 0 0 0
0 0 0 0 0 0 0 0 0 0 0 0 0 0 0 0 0 0 0 0 0 0 0 0 0 0 -0 -0 -0 -0 -0 -0 -0 -0 0 0 0 0 0 0 0 0 0 0 0 0 0 0 0
0 0 0 0 0 0 0 0 0 0 0 0 0 0 0 0 0 0 0 0 0 0 0 0 0 0 0 0 0 -0 -0 0 0 0 0 0 0 0 0 0 0 0 0 0 0 0 0 0 0
0 0 0 0 0 0 0 0 0 0 0 0 0 0 0 0 0 0 0 0 0 0 0 0 0 0 0 0 0 0 0 0 0 0 0 0 0 0 0 0 0 0 0 0 0 0 0 0 0
0 0 0 0 0 0 0 0 0 0 0 0 0 0 0 0 0 0 0 0 0 0 0 0 0 0 0 0 0 0 0 0 0 0 0 0 0 0 0 0 0 0 0 0 0 0 0 0 0
0 0 0 0 0 0 0 0 0 0 0 0 0 0 0 0 0 0 0 0 0 0 0 0 0 0 0 0 0 0 0 0 0 0 0 0 0 0 0 0 0 0 0 0 0 0 0 0 0
0 0 0 0 0 0 0 0 0 0 0 0 0 0 0 0 0 0 0 0 0 0 0 0 0 0 0 0 0 0 0 0 0 0 0 0 0 0 0 0 0 0 0 0 0 0 0 0 0
0 0 0 0 0 0 0 0 0 0 0 0 0 0 0 0 0 0 0 0 0 0 0 0 0 0 0 0 0 0 0 0 0 0 0 0 0 0 0 0 0 0 0 0 0 0 0 0 0
0 0 0 0 0 0 0 0 0 0 0 0 0 0 0 0 0 0 0 0 0 0 0 0 0 0 0 0 0 0 0 0 0 0 0 0 0 0 0 0 0 0 0 0 0 0 0 0 0
0 0 0 0 0 0 0 0 0 0 0 0 0 0 0 0 0 0 0 0 0 0 0 0 0 0 0 0 0 0 0 0 0 0 0 0 0 0 0 0 0 0 0 0 0 0 0 0 0
0 0 0 0 0 0 0 0 0 0 0 0 0 0 0 0 0 0 0 0 0 0 0 0 0 0 0 0 0 0 0 0 0 0 0 0 0 0 0 0 0 0 0 0 0 0 0 0 0
0 0 0 0 0 0 0 0 0 0 0 0 0 0 0 0 0 0 0 0 0 0 0 0 0 0 0 0 0 0 0 0 0 0 0 0 0 0 0 0 0 0 0 0 0 0 0 0 0
0 0 0 0 0 0 0 0 0 0 0 0 0 0 0 0 0 0 0 0 0 0 0 0 0 0 0 0 0 0 0 0 0 0 0 0 0 0 0 0 0 0 0 0 0 0 0 0 0
0 0 0 0 0 0 0 0 0 0 0 0 0 0 0 0 0 0 0 0 0 0 0 0 0 0 0 0 0 0 0 0 0 0 0 0 0 0 0 0 0 0 0 0 0 0 0 0 0
0 0 0 0 0 0 0 0 0 0 0 0 0 0 0 0 0 0 0 0 0 0 0 0 0 0 0 0 0 0 0 0 0 0 0 0 0 0 0 0 0 0 0 0 0 0 0 0 0
0 0 0 0 0 0 0 0 0 0 0 0 0 0 0 0 0 0 0 0 0 0 0 0 0 0 0 0 0 0 0 0 0 0 0 0 0 0 0 0 0 0 0 0 0 0 0 0 0
0 0 0 0 0 0 0 0 0 0 0 0 0 0 0 0 0 0 0 0 0 0 0 0 0 0 0 0 0 0 0 0 0 0 0 0 0 0 0 0 0 0 0 0 0 0 0 0 0
0 0 0 0 0 0 0 0 0 0 0 0 0 0 0 0 0 0 0 0 0 0 0 0 0 0 0 0 0 0 0 0 -0 0 0 0 0 0 0 0 0 0 0 0 0 0 0 0 0
0 0 0 0 0 0 0 0 0 0 0 0 0 0 0 0 0 0 0 0 0 0 0 0 0 0 0 0 0 -0 -0 -0 -0 -0 0 0 0 0 0 0 0 0 0 0 0 0 0 0 0
0 0 0 0 0 0 0 0 0 0 0 0 0 0 0 0 0 0 0 0 0 0 0 0 0 0 0 0 0 -0 -0 -0 0 0 0 0 0 0 0 0 0 0 0 0 0 0 0 0 0
0 0 0 0 0 0 0 0 0 0 0 0 0 0 0 0 0 0 0 0 0 0 0 0 0 0 0 0 0 -0 -0 0 0 0 0 0 0 0 0 0 0 0 0 0 0 0 0 0 0
0 0 0 0 0 0 0 0 0 0 0 0 0 0 0 0 0 0 0 0 0 0 0 0 0 0 -0 -0 0 -0 -0 -0 -0 0 0 0 0 0 0 0 0 0 0 0 0 0 0 0 0
0 0 0 0 0 0 0 0 0 0 0 0 0 0 0 0 0 0 0 0 0 0 0 0 0 -0 -0 -0 -0 0 0 0 0 0 0 0 0 0 0 0 0 0 0 0 0 0 0 0 0
0 0 0 0 0 0 0 0 0 0 0 0 0 0 0 0 0 0 0 0 0 0 0 0 0 0 0 0 0 0 0 0 0 0 0 0 0 0 0 0 0 0 0 0 0 -0 0 0 0
0 0 0 0 0 0 0 0 0 0 0 0 0 0 0 0 0 0 0 0 0 0 0 0 0 0 0 0 0 0 0 0 0 0 0 0 0 0 0 0 0 0 0 -0 -0 -0 -0 -0 -0
0 0 0 0 0 0 0 0 0 0 0 0 0 0 0 0 0 0 0 0 0 0 0 0 0 0 0 0 0 0 0 0 0 0 0 0 0 0 0 0 0 0 0 0 -0 -0 -0 -0 -0
Wind_Speed_500mb
7 5 6 2 8 11 2 1 2 5 3 1 3 4 3 3 6 5 12 3 6 11 26 32 31 30 29 28 24 21 18 13 9 6 5 7 6 6 3 4 9 13 11 10 9 8 6 4 2
5 5 2 4 10 8 7 7 2 2 1 3 4 5 5 2 4 6 9 6 6 7 21 29 31 29 28 26 23 22 19 15 11 9 9 9 10 10 8 10 11 11 10 9 6 5 4 3 3
5 6 1 9 7 8 7 6 4 4 4 5 3 3 3 2 5 5 9 7 5 3 14 25 28 29 28 24 23 22 19 16 14 12 12 12 12 12 11 13 13 13 14 14 9 6 5 5 6
6 3 10 9 4 2 3 3 5 3 4 7 5 4 2 2 1 4 10 12 8 1 6 21 29 29 28 27 27 25 23 21 18 16 15 15 15 12 10 14 15 15 16 17 13 11 9 10 11
7 6 9 8 6 6 6 4 2 2 2 4 6 5 7 6 0 3 7 12 11 4 5 11 26 31 31 30 29 28 27 24 22 19 17 16 15 17 14 15 17 19 22 16 14 12 12 12 13
6 6 9 4 5 6 5 7 2 4 5 4 5 10 5 14 9 8 4 7 12 6 2 8 16 28 34 34 33 33 31 29 26 22 19 21 19 16 17 17 18 20 22 17 13 12 13 13 13
11 8 7 7 3 5 4 11 6 1 6 4 7 6 4 12 17 12 10 8 8 9 6 8 14 22 31 36 37 38 36 33 30 27 24 25 23 22 21 21 19 20 20 18 15 13 14 14 12
6 10 5 3 2 3 7 5 6 3 3 3 5 4 7 24 17 10 9 10 11 12 10 11 15 21 28 35 39 39 37 36 33 31 29 30 29 27 25 23 22 22 22 22 16 16 15 12 11
5 9 2 6 11 4 4 9 3 10 5 8 7 11 22 20 19 11 9 11 16 16 17 19 18 20 24 30 35 37 37 37 34 35 33 34 34 33 32 27 24 23 23 23 21 19 17 15 14
8 7 13 5 4 2 6 2 11 6 17 0 12 18 17 14 11 11 17 18 22 22 22 23 25 25 25 28 31 33 34 35 35 34 34 37 37 36 34 30 29 28 25 23 22 21 20 21 19
5 8 7 4 11 5 6 10 1 1 9 6 15 22 13 10 4 6 9 14 18 18 17 22 24 26 28 29 29 31 31 36 37 37 36 36 35 37 34 35 34 32 29 27 27 23 20 23 24
2 7 8 5 7 4 5 10 10 10 3 13 9 7 12 13 14 13 12 13 11 11 14 19 25 28 29 29 29 27 27 31 36 32 39 40 38 38 38 38 37 38 36 33 33 29 25 25 26
5 4 6 12 18 20 19 15 12 35 18 12 7 3 12 15 15 14 15 15 16 18 19 20 23 29 31 33 29 27 25 23 26 38 36 39 37 39 40 38 40 41 40 38 37 34 31 29 30
2 8 20 20 22 16 10 6 4 14 13 8 7 15 19 18 17 15 15 16 16 15 16 18 21 24 28 33 31 27 24 21 19 17 21 34 39 45 43 41 40 38 41 41 39 38 31 31 33
3 8 13 11 8 8 10 2 12 6 6 12 9 9 12 20 19 18 17 19 20 20 22 18 16 17 16 24 29 24 21 17 14 12 12 15 19 21 28 36 37 33 38 40 44 43 41 40 38
6 8 7 4 4 1 9 13 5 6 13 9 4 6 9 14 18 18 15 15 16 18 21 24 19 11 7 12 21 19 18 15 12 12 15 18 18 21 26 30 33 35 38 39 36 46 48 42 43
10 6 7 16 5 3 4 11 14 14 19 13 11 10 10 12 14 18 20 19 18 19 20 20 20 14 11 13 15 15 13 8 13 14 16 16 16 16 16 19 23 27 30 36 39 43 45 40 44
12 8 8 10 2 6 2 15 20 20 6 16 16 16 16 17 23 25 26 27 28 25 24 26 28 28 27 23 19 15 13 5 5 10 13 20 21 22 24 24 24 26 27 25 31 28 39 33 34
9 8 10 6 7 3 13 13 13 11 22 22 21 22 24 27 29 32 36 39 39 40 39 36 29 29 21 18 16 14 10 12 8 3 7 14 14 17 20 22 24 22 16 18 21 25 24 27 33
5 7 10 10 6 11 9 18 5 11 6 17 28 25 26 30 31 38 43 47 50 53 54 52 52 45 41 34 32 28 23 19 15 11 10 12 15 19 23 26 27 25 24 21 23 25 30 34 34
10 12 9 14 4 3 4 15 7 8 18 17 19 25 29 30 33 37 41 45 48 51 53 55 57 58 59 58 51 44 36 26 19 18 13 16 18 17 17 18 22 29 33 36 37 37 35 34 35
10 16 13 8 7 8 2 9 8 9 10 12 21 26 30 31 32 35 37 42 46 51 49 48 48 46 45 41 37 34 36 34 33 28 25 21 18 18 18 17 15 16 22 29 33 36 39 42 40
12 10 12 8 8 3 5 2 12 8 11 11 23 26 28 29 31 35 36 39 41 40 37 35 36 36 35 33 33 32 33 31 26 23 20 21 22 22 22 22 21 20 18 17 19 20 22 27 31
18 12 13 9 6 2 16 13 7 10 9 11 28 34 37 38 37 36 35 35 33 29 26 25 27 30 27 25 27 26 25 23 18 19 19 21 23 25 26 27 28 29 28 28 30 30 26 24 24
10 12 1 6 2 11 2 4 15 13 10 15 37 51 42 36 37 36 32 28 24 20 18 17 17 19 19 17 17 19 19 18 19 21 23 22 25 28 30 31 32 33 33 33 32 32 31 32 32
13 13 10 13 7 8 3 11 11 3 11 17 43 51 44 40 37 31 25 20 15 11 10 11 10 13 12 12 14 16 18 18 19 19 22 25 27 30 30 31 33 34 36 37 38 40 39 36 36
10 8 7 13 4 5 9 8 6 2 5 13 38 49 50 45 41 32 25 19 12 6 2 2 5 5 7 6 11 12 13 13 14 17 20 24 27 30 33 36 37 39 41 44 46 47 48 49 48
5 11 7 5 2 10 7 9 10 13 16 13 22 52 54 47 43 38 29 19 14 9 5 6 4 3 2 2 5 7 10 13 15 18 21 25 29 31 34 38 41 43 46 49 53 57 60 62 61
6 6 7 7 8 10 4 10 10 15 17 28 37 56 52 50 48 42 32 25 18 16 12 14 11 9 6 3 6 9 14 18 21 25 28 31 34 36 38 40 43 49 56 62 68 71 74 76 77
2 12 13 11 11 4 3 17 6 6 28 48 53 55 47 43 42 40 37 35 29 22 22 20 19 16 12 9 8 12 16 20 24 27 31 35 38 40 43 46 51 59 65 70 77 83 86 89 90
Wind_Direction_500mb
325 327 329 321 61 67 343 288 251 345 31 65 103 100 139 130 146 204 352 22 21 162 183 184 185 184 184 186 193 198 197 204 209 224 242 250 237 200 222 297 311 326 331 353 10 38 55 63 76
360 7 7 99 83 69 283 273 230 244 6 84 101 66 60 351 5 357 8 359 23 145 187 190 191 195 196 198 205 209 211 214 227 240 237 233 237 253 271 285 312 325 334 332 348 4 15 18 353
30 12 27 93 107 149 183 231 234 302 49 62 82 66 101 35 28 47 31 27 13 131 188 201 200 202 204 204 204 207 211 224 240 251 253 245 247 255 268 292 313 318 324 320 312 316 313 306 296
9 6 57 76 94 221 198 289 240 331 59 48 51 61 330 345 65 89 61 54 34 72 182 203 210 213 213 213 213 215 221 234 243 248 245 249 252 241 261 300 306 317 318 310 298 295 298 297 292
21 55 56 74 315 287 283 353 164 348 4 15 22 348 323 0 16 110 61 43 31 12 213 207 216 221 224 226 227 228 232 240 244 246 249 257 261 283 289 296 303 312 322 302 298 297 300 299 294
62 61 62 139 263 296 324 23 74 12 0 16 37 344 17 25 21 349 0 19 19 9 257 235 227 225 231 233 235 237 241 244 245 244 246 245 268 273 289 293 299 307 323 320 317 306 304 303 300
100 77 156 167 272 343 323 354 83 125 338 23 355 355 30 37 358 321 307 316 1 7 333 272 248 237 232 234 238 241 243 242 244 244 243 245 256 262 278 287 292 301 318 325 322 314 309 308 304
78 92 102 232 177 196 348 49 101 73 323 350 338 316 333 336 351 0 329 307 310 324 307 282 266 253 242 239 240 242 243 244 242 243 244 249 258 262 267 276 288 297 308 320 316 312 305 300 288
68 61 161 215 159 205 10 30 88 319 278 320 314 342 321 310 302 303 316 288 282 287 296 285 277 265 257 250 247 246 245 245 245 245 244 248 256 262 264 269 276 288 295 307 314 309 302 293 279
81 106 219 218 214 231 329 11 338 342 324 129 353 341 320 290 285 269 284 287 282 273 263 258 262 271 267 257 253 252 249 248 245 244 245 251 258 264 269 271 273 277 280 295 306 304 303 289 278
129 171 203 253 249 277 313 312 112 161 298 345 352 353 28 48 18 314 327 328 321 306 271 256 252 251 255 259 256 255 249 239 241 248 249 248 252 264 260 265 271 280 279 289 296 302 293 281 277
96 234 207 260 235 276 289 306 301 245 224 345 327 47 30 14 4 352 335 327 317 307 292 265 256 251 246 244 255 259 259 258 261 257 253 254 258 259 261 263 270 276 282 288 290 294 295 283 272
167 272 251 269 275 277 277 261 264 277 314 98 133 6 7 2 357 340 335 321 303 295 292 288 274 261 247 236 235 250 260 270 267 257 251 254 257 261 265 267 271 278 282 286 293 290 292 291 282
248 296 293 289 276 270 236 246 220 79 93 63 25 0 358 359 357 343 314 316 318 315 298 298 299 288 263 236 228 239 258 275 296 312 273 263 268 262 261 267 271 289 281 287 296 301 296 293 292
344 332 324 274 290 201 180 268 227 136 69 47 1 348 349 356 355 355 346 338 341 337 333 323 313 309 288 236 224 228 244 265 284 300 308 296 287 283 270 267 274 285 289 289 292 290 295 300 297
29 55 358 309 133 349 151 256 274 94 356 46 79 65 21 4 8 15 16 9 3 359 350 350 343 325 303 203 203 209 220 232 261 277 272 269 271 273 270 269 280 286 283 285 288 283 279 286 296
6 242 206 319 1 140 137 270 270 342 348 108 97 74 67 60 45 38 40 40 38 38 39 43 51 64 87 123 148 171 185 197 245 258 279 282 279 277 284 284 282 284 282 285 284 278 277 282 285
202 215 240 236 288 43 155 266 284 16 102 121 108 102 93 80 66 64 65 65 63 62 66 71 72 76 83 92 102 115 121 165 264 303 295 277 290 291 293 289 286 283 283 281 278 291 283 275 286
149 183 214 248 230 164 244 244 285 44 107 119 118 112 100 91 86 84 81 80 81 83 84 86 92 88 89 96 100 99 84 87 108 104 348 306 311 301 297 295 294 289 320 311 300 296 292 304 301
143 169 238 286 249 169 280 264 103 33 74 149 141 132 121 111 106 97 93 90 86 83 81 82 83 85 85 84 79 75 70 71 64 44 7 338 309 306 313 316 319 327 310 309 307 306 313 305 302
198 198 193 220 1 273 347 291 182 56 99 123 140 137 132 125 114 105 99 92 88 84 80 78 76 73 72 70 68 67 63 59 54 49 23 11 356 333 311 299 293 306 313 313 314 314 313 313 310
200 201 193 171 114 230 104 271 297 169 156 160 161 156 148 140 125 112 105 98 90 86 82 76 72 70 69 66 58 50 51 51 60 57 50 43 35 19 8 355 337 319 301 296 295 296 297 297 302
211 126 161 154 145 93 274 329 258 134 227 200 192 174 158 144 133 122 112 104 96 90 79 66 56 50 51 47 42 40 40 58 60 58 49 46 44 44 39 33 25 12 0 346 327 322 320 310 296
145 80 54 54 76 295 228 186 253 195 206 165 187 187 175 163 150 138 128 118 109 94 83 67 49 46 49 47 50 48 53 57 54 48 35 34 30 27 24 21 19 17 11 9 4 2 355 342 321
98 105 19 353 2 231 342 159 245 188 192 190 185 189 183 172 159 150 141 134 120 106 86 70 66 59 54 47 48 46 39 38 28 23 20 17 14 14 13 10 7 5 6 2 358 354 353 350 349
181 163 156 207 201 252 128 232 266 295 316 263 198 184 181 181 175 162 152 142 125 105 91 81 58 44 52 56 54 48 36 26 21 13 6 3 3 3 3 360 357 354 350 347 344 343 342 339 335
187 187 158 106 57 60 209 278 248 29 43 123 166 179 188 188 187 181 175 166 158 153 128 104 42 52 75 66 53 35 28 17 9 4 360 354 353 351 349 348 346 344 341 338 335 332 329 327 325
160 159 79 6 235 263 255 256 223 220 201 161 181 191 195 193 196 198 198 196 198 201 225 258 242 192 133 59 27 10 352 350 348 347 342 341 339 335 333 334 336 336 335 332 329 327 324 320 317
145 179 74 136 154 191 283 252 213 220 172 180 203 202 198 200 205 208 211 215 222 231 247 253 238 223 226 260 318 335 337 336 336 335 336 336 334 331 330 330 330 329 328 326 323 321 318 315 312
320 200 162 184 222 256 141 262 14 283 177 181 197 205 207 212 216 221 226 232 234 240 250 243 233 228 231 251 286 308 313 319 323 325 326 328 328 329 328 327 326 324 322 321 320 318 316 315 312
Wind_Speed_850mb
7 5 6 2 8 11 2 1 2 5 3 1 3 4 3 3 6 5 12 3 6 11 26 32 31 30 29 28 24 21 18 13 9 6 5 7 6 6 3 4 9 13 11 10 9 8 6 4 2
5 5 2 4 10 8 7 7 2 2 1 3 4 5 5 2 4 6 9 6 6 7 21 29 31 29 28 26 23 22 19 15 11 9 9 9 10 10 8 10 11 11 10 9 6 5 4 3 3
5 6 1 9 7 8 7 6 4 4 4 5 3 3 3 2 5 5 9 7 5 3 14 25 28 29 28 24 23 22 19 16 14 12 12 12 12 12 11 13 13 13 14 14 9 6 5 5 6
6 3 10 9 4 2 3 3 5 3 4 7 5 4 2 2 1 4 10 12 8 1 6 21 29 29 28 27 27 25 23 21 18 16 15 15 15 12 10 14 15 15 16 17 13 11 9 10 11
7 6 9 8 6 6 6 4 2 2 2 4 6 5 7 6 0 3 7 12 11 4 5 11 26 31 31 30 29 28 27 24 22 19 17 16 15 17 14 15 17 19 22 16 14 12 12 12 13
6 6 9 4 5 6 5 7 2 4 5 4 5 10 5 14 9 8 4 7 12 6 2 8 16 28 34 34 33 33 31 29 26 22 19 21 19 16 17 17 18 20 22 17 13 12 13 13 13
11 8 7 7 3 5 4 11 6 1 6 4 7 6 4 12 17 12 10 8 8 9 6 8 14 22 31 36 37 38 36 33 30 27 24 25 23 22 21 21 19 20 20 18 15 13 14 14 12
6 10 5 3 2 3 7 5 6 3 3 3 5 4 7 24 17 10 9 10 11 12 10 11 15 21 28 35 39 39 37 36 33 31 29 30 29 27 25 23 22 22 22 22 16 16 15 12 11
5 9 2 6 11 4 4 9 3 10 5 8 7 11 22 20 19 11 9 11 16 16 17 19 18 20 24 30 35 37 37 37 34 35 33 34 34 33 32 27 24 23 23 23 21 19 17 15 14
8 7 13 5 4 2 6 2 11 6 17 0 12 18 17 14 11 11 17 18 22 22 22 23 25 25 25 28 31 33 34 35 35 34 34 37 37 36 34 30 29 28 25 23 22 21 20 21 19
5 8 7 4 11 5 6 10 1 1 9 6 15 22 13 10 4 6 9 14 18 18 17 22 24 26 28 29 29 31 31 36 37 37 36 36 35 37 34 35 34 32 29 27 27 23 20 23 24
2 7 8 5 7 4 5 10 10 10 3 13 9 7 12 13 14 13 12 13 11 11 14 19 25 28 29 29 29 27 27 31 36 32 39 40 38 38 38 38 37 38 36 33 33 29 25 25 26
5 4 6 12 18 20 19 15 12 35 18 12 7 3 12 15 15 14 15 15 16 18 19 20 23 29 31 33 29 27 25 23 26 38 36 39 37 39 40 38 40 41 40 38 37 34 31 29 30
2 8 20 20 22 16 10 6 4 14 13 8 7 15 19 18 17 15 15 16 16 15 16 18 21 24 28 33 31 27 24 21 19 17 21 34 39 45 43 41 40 38 41 41 39 38 31 31 33
3 8 13 11 8 8 10 2 12 6 6 12 9 9 12 20 19 18 17 19 20 20 22 18 16 17 16 24 29 24 21 17 14 12 12 15 19 21 28 36 37 33 38 40 44 43 41 40 38
6 8 7 4 4 1 9 13 5 6 13 9 4 6 9 14 18 18 15 15 16 18 21 24 19 11 7 12 21 19 18 15 12 12 15 18 18 21 26 30 33 35 38 39 36 46 48 42 43
10 6 7 16 5 3 4 11 14 14 19 13 11 10 10 12 14 18 20 19 18 19 20 20 20 14 11 13 15 15 13 8 13 14 16 16 16 16 16 19 23 27 30 36 39 43 45 40 44
12 8 8 10 2 6 2 15 20 20 6 16 16 16 16 17 23 25 26 27 28 25 24 26 28 28 27 23 19 15 13 5 5 10 13 20 21 22 24 24 24 26 27 25 31 28 39 33 34
9 8 10 6 7 3 13 13 13 11 22 22 21 22 24 27 29 32 36 39 39 40 39 36 29 29 21 18 16 14 10 12 8 3 7 14 14 17 20 22 24 22 16 18 21 25 24 27 33
5 7 10 10 6 11 9 18 5 11 6 17 28 25 26 30 31 38 43 47 50 53 54 52 52 45 41 34 32 28 23 19 15 11 10 12 15 19 23 26 27 25 24 21 23 25 30 34 34
10 12 9 14 4 3 4 15 7 8 18 17 19 25 29 30 33 37 41 45 48 51 53 55 57 58 59 58 51 44 36 26 19 18 13 16 18 17 17 18 22 29 33 36 37 37 35 34 35
10 16 13 8 7 8 2 9 8 9 10 12 21 26 30 31 32 35 37 42 46 51 49 48 48 46 45 41 37 34 36 34 33 28 25 21 18 18 18 17 15 16 22 29 33 36 39 42 40
12 10 12 8 8 3 5 2 12 8 11 11 23 26 28 29 31 35 36 39 41 40 37 35 36 36 35 33 33 32 33 31 26 23 20 21 22 22 22 22 21 20 18 17 19 20 22 27 31
18 12 13 9 6 2 16 13 7 10 9 11 28 34 37 38 37 36 35 35 33 29 26 25 27 30 27 25 27 26 25 23 18 19 19 21 23 25 26 27 28 29 28 28 30 30 26 24 24
10 12 1 6 2 11 2 4 15 13 10 15 37 51 42 36 37 36 32 28 24 20 18 17 17 19 19 17 17 19 19 18 19 21 23 22 25 28 30 31 32 33 33 33 32 32 31 32 32
13 13 10 13 7 8 3 11 11 3 11 17 43 51 44 40 37 31 25 20 15 11 10 11 10 13 12 12 14 16 18 18 19 19 22 25 27 30 30 31 33 34 36 37 38 40 39 36 36
10 8 7 13 4 5 9 8 6 2 5 13 38 49 50 45 41 32 25 19 12 6 2 2 5 5 7 6 11 12 13 13 14 17 20 24 27 30 33 36 37 39 41 44 46 47 48 49 48
5 11 7 5 2 10 7 9 10 13 16 13 22 52 54 47 43 38 29 19 14 9 5 6 4 3 2 2 5 7 10 13 15 18 21 25 29 31 34 38 41 43 46 49 53 57 60 62 61
6 6 7 7 8 10 4 10 10 15 17 28 37 56 52 50 48 42 32 25 18 16 12 14 11 9 6 3 6 9 14 18 21 25 28 31 34 36 38 40 43 49 56 62 68 71 74 76 77
2 12 13 11 11 4 3 17 6 6 28 48 53 55 47 43 42 40 37 35 29 22 22 20 19 16 12 9 8 12 16 20 24 27 31 35 38 40 43 46 51 59 65 70 77 83 86 89 90
Wind_Direction_850mb
325 327 329 321 61 67 343 288 251 345 31 65 103 100 139 130 146 204 352 22 21 162 183 184 185 184 184 186 193 198 197 204 209 224 242 250 237 200 222 297 311 326 331 353 10 38 55 63 76
360 7 7 99 83 69 283 273 230 244 6 84 101 66 60 351 5 357 8 359 23 145 187 190 191 195 196 198 205 209 211 214 227 240 237 233 237 253 271 285 312 325 334 332 348 4 15 18 353
30 12 27 93 107 149 183 231 234 302 49 62 82 66 101 35 28 47 31 27 13 131 188 201 200 202 204 204 204 207 211 224 240 251 253 245 247 255 268 292 313 318 324 320 312 316 313 306 296
9 6 57 76 94 221 198 289 240 331 59 48 51 61 330 345 65 89 61 54 34 72 182 203 210 213 213 213 213 215 221 234 243 248 245 249 252 241 261 300 306 317 318 310 298 295 298 297 292
21 55 56 74 315 287 283 353 164 348 4 15 22 348 323 0 16 110 61 43 31 12 213 207 216 221 224 226 227 228 232 240 244 246 249 257 261 283 289 296 303 312 322 302 298 297 300 299 294
62 61 62 139 263 296 324 23 74 12 0 16 37 344 17 25 21 349 0 19 19 9 257 235 227 225 231 233 235 237 241 244 245 244 246 245 268 273 289 293 299 307 323 320 317 306 304 303 300
100 77 156 167 272 343 323 354 83 125 338 23 355 355 30 37 358 321 307 316 1 7 333 272 248 237 232 234 238 241 243 242 244 244 243 245 256 262 278 287 292 301 318 325 322 314 309 308 304
78 92 102 232 177 196 348 49 101 73 323 350 338 316 333 336 351 0 329 307 310 324 307 282 266 253 242 239 240 242 243 244 242 243 244 249 258 262 267 276 288 297 308 320 316 312 305 300 288
68 61 161 215 159 205 10 30 88 319 278 320 314 342 321 310 302 303 316 288 282 287 296 285 277 265 257 250 247 246 245 245 245 245 244 248 256 262 264 269 276 288 295 307 314 309 302 293 279
81 106 219 218 214 231 329 11 338 342 324 129 353 341 320 290 285 269 284 287 282 273 263 258 262 271 267 257 253 252 249 248 245 244 245 251 258 264 269 271 273 277 280 295 306 304 303 289 278
129 171 203 253 249 277 313 312 112 161 298 345 352 353 28 48 18 314 327 328 321 306 271 256 252 251 255 259 256 255 249 239 241 248 249 248 252 264 260 265 271 280 279 289 296 302 293 281 277
96 234 207 260 235 276 289 306 301 245 224 345 327 47 30 14 4 352 335 327 317 307 292 265 256 251 246 244 255 259 259 258 261 257 253 254 258 259 261 263 270 276 282 288 290 294 295 283 272
167 272 251 269 275 277 277 261 264 277 314 98 133 6 7 2 357 340 335 321 303 295 292 288 274 261 247 236 235 250 260 270 267 257 251 254 257 261 265 267 271 278 282 286 293 290 292 291 282
248 296 293 289 276 270 236 246 220 79 93 63 25 0 358 359 357 343 314 316 318 315 298 298 299 288 263 236 228 239 258 275 296 312 273 263 268 262 261 267 271 289 281 287 296 301 296 293 292
344 332 324 274 290 201 180 268 227 136 69 47 1 348 349 356 355 355 346 338 341 337 333 323 313 309 288 236 224 228 244 265 284 300 308 296 287 283 270 267 274 285 289 289 292 290 295 300 297
29 55 358 309 133 349 151 256 274 94 356 46 79 65 21 4 8 15 16 9 3 359 350 350 343 325 303 203 203 209 220 232 261 277 272 269 271 273 270 269 280 286 283 285 288 283 279 286 296
6 242 206 319 1 140 137 270 270 342 348 108 97 74 67 60 45 38 40 40 38 38 39 43 51 64 87 123 148 171 185 197 245 258 279 282 279 277 284 284 282 284 282 285 284 278 277 282 285
202 215 240 236 288 43 155 266 284 16 102 121 108 102 93 80 66 64 65 65 63 62 66 71 72 76 83 92 102 115 121 165 264 303 295 277 290 291 293 289 286 283 283 281 278 291 283 275 286
149 183 214 248 230 164 244 244 285 44 107 119 118 112 100 91 86 84 81 80 81 83 84 86 92 88 89 96 100 99 84 87 108 104 348 306 311 301 297 295 294 289 320 311 300 296 292 304 301
143 169 238 286 249 169 280 264 103 33 74 149 141 132 121 111 106 97 93 90 86 83 81 82 83 85 85 84 79 75 70 71 64 44 7 338 309 306 313 316 319 327 310 309 307 306 313 305 302
198 198 193 220 1 273 347 291 182 56 99 123 140 137 132 125 114 105 99 92 88 84 80 78 76 73 72 70 68 67 63 59 54 49 23 11 356 333 311 299 293 306 313 313 314 314 313 313 310
200 201 193 171 114 230 104 271 297 169 156 160 161 156 148 140 125 112 105 98 90 86 82 76 72 70 69 66 58 50 51 51 60 57 50 43 35 19 8 355 337 319 301 296 295 296 297 297 302
211 126 161 154 145 93 274 329 258 134 227 200 192 174 158 144 133 122 112 104 96 90 79 66 56 50 51 47 42 40 40 58 60 58 49 46 44 44 39 33 25 12 0 346 327 322 320 310 296
145 80 54 54 76 295 228 186 253 195 206 165 187 187 175 163 150 138 128 118 109 94 83 67 49 46 49 47 50 48 53 57 54 48 35 34 30 27 24 21 19 17 11 9 4 2 355 342 321
98 105 19 353 2 231 342 159 245 188 192 190 185 189 183 172 159 150 141 134 120 106 86 70 66 59 54 47 48 46 39 38 28 23 20 17 14 14 13 10 7 5 6 2 358 354 353 350 349
181 163 156 207 201 252 128 232 266 295 316 263 198 184 181 181 175 162 152 142 125 105 91 81 58 44 52 56 54 48 36 26 21 13 6 3 3 3 3 360 357 354 350 347 344 343 342 339 335
187 187 158 106 57 60 209 278 248 29 43 123 166 179 188 188 187 181 175 166 158 153 128 104 42 52 75 66 53 35 28 17 9 4 360 354 353 351 349 348 346 344 341 338 335 332 329 327 325
160 159 79 6 235 263 255 256 223 220 201 161 181 191 195 193 196 198 198 196 198 201 225 258 242 192 133 59 27 10 352 350 348 347 342 341 339 335 333 334 336 336 335 332 329 327 324 320 317
145 179 74 136 154 191 283 252 213 220 172 180 203 202 198 200 205 208 211 215 222 231 247 253 238 223 226 260 318 335 337 336 336 335 336 336 334 331 330 330 330 329 328 326 323 321 318 315 312
320 200 162 184 222 256 141 262 14 283 177 181 197 205 207 212 216 221 226 232 234 240 250 243 233 228 231 251 286 308 313 319 323 325 326 328 328 329 328 327 326 324 322 321 320 318 316 315 312